Location: Barcelonnette
(44.3867°N, 6.6535°E)
Time: 06:36:59
(UTC+00:00)

Daily predictions for brighter satellites

Satellite Brightness Start Highest point End
(mag) Time Altitude Azimuth Time Altitude Azimuth Time Altitude Azimuth
IRS-1C Rocket 4.5 17:56:01 10° SE 18:00:58 44° ENE 18:05:57 10° N
Cosmos 1833 Rocket 3.7 17:58:24 10° NW 18:03:49 51° WSW 18:09:13 10° S
H-2A R/B 2.2 18:01:37 10° NNE 18:05:43 47° E 18:09:42 10° S
Okean-O 3.2 18:03:05 10° SE 18:07:09 37° ENE 18:11:14 10° N
Cosmos 1842 3.2 18:04:43 10° N 18:08:40 75° E 18:12:35 10° SSE
Cosmos 2074 Rocket 4.3 18:03:16 10° SSE 18:09:05 43° E 18:14:59 10° NNE
H-2A R/B 3.0 18:05:43 10° S 18:10:34 52° W 18:15:35 10° NNW
ISS -3.4 18:07:16 10° WSW 18:10:37 66° NNW 18:13:58 10° NE
Cosmos 1340 3.0 18:08:24 10° N 18:12:02 44° ENE 18:15:38 10° SSE
Okean 2 3.7 18:08:51 10° N 18:12:46 43° ENE 18:16:39 10° SSE
CZ-4 R/B 1.2 18:09:16 10° SSE 18:13:05 71° ENE 18:16:56 10° N
Cosmos 1626 4.2 18:13:14 10° NE 18:14:17 11° ENE 18:15:12 10° E
CSL-04 Rocket 4.2 18:09:53 10° SE 18:14:46 38° ENE 18:19:44 10° N
Cosmos 921 Rocket 3.4 18:11:01 10° NNW 18:15:19 68° WSW 18:19:31 10° S
SeaSat 1 3.4 18:11:35 10° ESE 18:15:51 30° NE 18:20:08 10° N
Lacrosse 4 Rocket 3.5 18:14:16 10° WSW 18:17:46 28° NW 18:21:19 10° N
Lacrosse 5 rocket 2.9 18:14:33 10° NW 18:18:30 28° NNE 18:22:02 12° E
Feng Yun 1-1 Rocket 4.4 18:15:11 10° S 18:20:34 77° WSW 18:26:00 10° NNW
Cosmos 1975 2.7 18:17:40 10° S 18:21:37 75° E 18:25:36 10° NNE
Cosmos 2082 Rocket 2.6 18:20:15 10° NNW 18:25:58 71° WSW 18:31:36 10° SSE
Cosmos 836 Rocket 4.5 18:22:19 10° NNW 18:27:38 75° ENE 18:32:55 10° SSE
USA 186 3.0 18:27:21 17° E 18:28:14 20° ENE 18:30:29 10° NNE
Cosmos 1975 Rocket 4.4 18:29:41 10° NNE 18:33:06 21° ENE 18:34:51 17° ESE
Cosmos 2181 Rocket 4.2 18:26:56 10° NNW 18:33:06 75° W 18:39:21 10° S
USA 215 3.3 18:31:02 12° ESE 18:37:15 81° NE 18:43:51 10° NW
Cosmos 1400 Rocket 3.0 18:33:31 10° S 18:37:28 48° E 18:41:23 10° NNE
SJ-6B 3.9 18:35:16 17° ESE 18:37:39 29° ENE 18:41:14 10° N
ARGOS 4.3 18:35:40 10° S 18:40:49 47° W 18:45:59 10° NNW
Okean O Rocket 4.3 18:41:02 10° SW 18:44:28 22° W 18:47:55 10° NW
PSLV R/B 4.1 18:41:43 10° NNE 18:45:46 49° E 18:49:46 10° S
Cosmos 2278 Rocket 4.2 18:41:52 10° WSW 18:46:50 30° NW 18:51:51 10° N
CZ-4B R/B 1.0 18:45:38 10° NNE 18:48:42 84° ESE 18:51:47 10° SSW
Cosmos 1908 Rocket 3.5 18:46:10 10° S 18:50:36 71° E 18:55:04 10° NNE
Cosmos 1943 Rocket 2.1 18:45:37 10° SSW 18:51:08 74° ESE 18:56:45 10° NNE
Cosmos 2369 Rocket 2.7 18:46:42 10° S 18:51:49 36° ESE 18:56:54 10° NE
Cosmos 1238 Rocket 3.9 18:46:02 10° S 18:52:30 75° E 18:58:21 10° NNE
Cosmos 2184 Rocket 4.0 18:46:22 10° S 18:52:43 88° E 18:59:03 10° N
COSMOS 2455 2.8 18:46:58 10° NNW 18:53:02 77° ENE 18:57:53 16° SE
Cosmos 1503 Rocket 3.9 18:49:39 10° SSW 18:54:52 85° ESE 19:00:05 10° NNE
Cosmos 1378 Rocket 4.0 18:50:49 10° NNW 18:55:12 66° W 18:59:35 10° S
Cosmos 2297 3.7 18:49:41 10° SSW 18:55:22 87° ESE 19:01:08 10° NNE
Cosmos 1805 3.9 18:58:13 32° E 18:58:28 32° E 19:01:57 10° NNE
CZ-2C R/B 4.5 18:55:20 10° N 19:00:16 35° WNW 19:05:16 10° SW
Cosmos 2327 Rocket 4.4 18:55:40 10° S 19:01:48 68° E 19:08:05 10° NNE
YAOGAN 1 4.3 18:59:45 10° SSW 19:03:39 33° W 19:07:36 10° NNW
CSL-04 Debris 4.3 18:58:42 10° S 19:04:06 78° WSW 19:09:32 10° NNW
Atlas Centaur 2 4.1 18:58:29 10° SW 19:05:01 25° SSE 19:08:01 20° SE
Cosmos 1295 Rocket 4.4 18:58:52 10° S 19:05:01 68° E 19:11:17 10° NNE
Cosmos 1610 Rocket 4.4 19:00:47 10° S 19:07:01 77° E 19:13:13 10° N
Cosmos 1777 Rocket 4.1 19:04:04 10° S 19:09:06 50° ESE 19:14:09 10° NNE
Cosmos 1354 Rocket 4.0 19:04:20 10° SSW 19:09:36 86° WNW 19:14:53 10° NNE
Cosmos 2154 Rocket 4.0 19:05:04 10° S 19:11:25 86° E 19:17:49 10° N
Cosmos 1707 3.9 19:07:52 10° NNW 19:11:35 43° W 19:15:17 10° SSW
Cosmos 2263 4.5 19:11:12 10° S 19:16:23 40° ESE 19:21:35 10° NE
SJ 16-02 2.3 19:21:26 32° ENE 19:21:26 32° ENE 19:24:10 10° NNE
Cosmos 1674 2.6 19:16:55 10° N 19:20:38 78° W 19:22:07 35° S
Cosmos 1461 3.5 19:18:57 10° NW 19:22:49 49° WSW 19:24:21 30° S
ATLAS CENTAUR R/B 1.7 19:21:18 10° NW 19:26:00 81° WSW 19:27:39 42° SSE
SL-8 Rocket 4.2 19:23:45 32° SE 19:26:08 45° E 19:32:06 10° NNE
KORONAS-FOTON 4.1 19:23:38 10° NNW 19:27:23 62° W 19:29:03 30° SSW
Nadezhda 3 Rocket 4.1 19:23:08 10° NNW 19:29:17 74° W 19:35:24 10° S
USA 276 3.4 19:26:48 10° W 19:29:41 33° NNW 19:29:52 33° N
OBJECT-B 1.6 19:29:06 38° SW 19:29:50 47° W 19:32:56 10° NNW
Cosmos 1346 Rocket 2.7 19:25:49 10° N 19:29:52 90° S 19:30:35 59° S
Cosmos 1339 Rocket 4.5 19:28:59 10° N 19:35:08 59° ENE 19:36:52 43° SE
Cosmos 1656 Rocket 3.6 19:32:26 10° S 19:37:54 57° ESE 19:43:19 10° NNE
Cosmos 1733 3.6 19:41:51 54° N 19:41:51 54° N 19:44:53 10° N
Cosmos 1782 Rocket 4.0 19:37:17 10° SSW 19:41:41 61° W 19:46:05 10° N
Cosmos 773 Rocket 4.4 19:39:58 10° NNW 19:45:09 62° WSW 19:47:21 34° S
ISS -1.8 19:45:02 10° WNW 19:47:52 25° N 19:47:52 25° N
Cosmos 1184 Rocket 4.4 19:45:01 10° NNW 19:46:55 32° NNW 19:46:55 32° NNW
Cosmos 1626 2.8 19:46:13 10° NNW 19:49:43 53° W 19:49:43 53° W
SeaSat 1 3.4 19:51:02 27° SSW 19:53:11 43° WSW 19:57:54 10° NW
CZ-3 Stage 3 4.1 19:36:19 10° WSW 19:56:12 33° S 19:58:05 30° SSE
Cosmos 2341 Rocket 4.0 19:50:36 10° S 19:56:54 86° W 20:03:19 10° N
Lacrosse 5 rocket 1.7 19:53:34 10° NW 19:57:38 67° W 19:57:38 67° W
USA 186 4.4 19:58:52 16° W 19:58:54 16° W 20:00:51 10° NW
BREEZE-M DEB (TANK) 4.0 19:53:35 10° W 19:58:54 39° NNW 19:58:54 39° NNW
Meteor 2-20 Rocket 4.4 19:53:01 10° N 19:59:06 62° ENE 19:59:18 62° E
Resurs 01 Rocket 2.3 20:00:35 47° N 20:00:35 47° N 20:03:51 10° N
IRS-1A Rocket 4.3 19:58:17 50° S 19:59:56 81° WSW 20:05:51 10° NNW
MOS 1 4.3 19:59:25 49° S 20:01:01 76° WSW 20:06:44 10° NNW
Cosmos 1315 Rocket 4.0 20:04:54 39° NNW 20:04:54 39° NNW 20:07:42 10° N
Helios 1A Rocket 3.7 20:05:27 48° W 20:05:27 48° W 20:09:16 10° NNW
Meteor 1-24 Rocket 3.8 20:01:22 10° N 20:05:57 59° NE 20:05:57 59° NE
Cosmos 2366 rocket 3.8 20:06:55 72° SE 20:07:23 77° E 20:13:31 10° N
Ariane Rocket 3.0 20:07:51 72° SW 20:08:05 73° WSW 20:13:11 10° NNW
Cosmos 1025 Rocket 3.7 20:06:37 10° NNW 20:10:12 52° NW 20:10:12 52° NW
Cosmos 1975 Rocket 4.4 20:07:00 10° NNW 20:11:05 37° W 20:12:01 33° WSW
USA 281 3.0 20:05:14 10° NNE 20:11:50 76° ESE 20:13:38 50° S
Cosmos 2218 Rocket 3.8 20:12:06 72° S 20:12:46 85° E 20:18:59 10° N
Terra 4.2 20:15:18 13° NNE 20:15:18 13° NNE 20:16:07 10° NNE
Cosmos 2297 Rocket 4.3 20:10:45 10° N 20:13:21 15° NE 20:13:21 15° NE
Resurs 1-3 4.5 20:14:09 45° W 20:14:09 45° W 20:18:21 10° NNW
EO 1 Delta rocket 4.5 20:15:37 51° WSW 20:16:04 53° W 20:21:09 10° NNW
Cosmos 1538 Rocket 4.2 20:11:31 10° NNW 20:16:50 68° WSW 20:16:50 68° WSW
USA 215 4.5 20:18:24 25° SSW 20:20:40 31° SW 20:26:23 10° WNW
Meteor 2-10 4.4 20:21:57 63° N 20:21:57 63° N 20:26:36 10° N
SPOT 3 Rocket 4.0 20:23:39 55° N 20:23:39 55° N 20:27:40 10° NNW
Cosmos 1833 4.3 20:19:16 10° NNW 20:24:26 72° WNW 20:24:26 72° WNW
Cosmos 2369 Rocket 3.5 20:30:33 10° WSW 20:35:47 37° NW 20:41:02 10° NNE
Cosmos 2227 Rocket 4.3 20:32:20 10° N 20:34:42 15° NNE 20:34:42 15° NNE
Atlas Centaur 2 4.4 20:46:51 10° WSW 20:50:36 23° SW 20:50:36 23° SW
SJ 16-02 3.8 20:58:13 20° WNW 20:58:45 20° WNW 21:02:05 10° N
Cosmos 2297 Rocket 4.4 21:53:19 10° NNW 21:55:09 21° NNW 21:55:09 21° NNW
CENTAUR R/B 4.4 22:32:34 27° N 22:32:34 27° N 22:36:43 10° NNE
